Dewpoint
-8 -8 -6 -5 -5 -4 -3 -3 -3 -5 -7 -9 -11 -12 -12 -11 -7 -9 -10 -15 -5 -6 -4 -4 -6 -8 -6 -5 -5 -8 -6 -6 -5 2 3 2 3 6 7 7 6 7 9 11 11
-7 -7 -4 -4 -4 -3 -3 -3 -3 -5 -7 -10 -10 -11 -10 -7 -8 -11 -15 -13 -8 -2 -2 -5 -7 -7 -4 -4 -5 -6 -5 -6 -7 -4 2 2 2 4 6 7 6 7 9 10 6
-6 -5 -3 -4 -4 -3 -2 -2 -3 -5 -7 -9 -10 -9 -6 -7 -8 -8 -3 -4 -3 -3 -2 -5 -6 -6 -4 -5 -7 -8 -6 -11 -11 -3 -2 -2 0 4 6 7 6 7 10 8 -0
-4 -4 -2 -3 -3 -2 -2 -2 -3 -5 -7 -8 -9 -6 -6 -6 -3 -4 -5 -6 -5 -4 -4 -5 -6 -4 -2 -4 -6 -10 -12 -14 -13 -6 -7 -0 -1 5 4 2 3 4 5 5 1
-3 -3 -2 -3 -2 -3 -2 -2 -4 -6 -7 -8 -7 -6 -5 -4 -7 -4 -4 -5 -6 -6 -6 -7 -6 -4 -3 -7 -10 -13 -15 -13 -14 -12 -5 -6 -4 3 -4 4 4 5 5 5 4
-3 -2 -2 -3 -3 -2 -2 -2 -4 -6 -7 -7 -5 -5 -4 -1 -5 -3 -4 -5 -6 -6 -6 -7 -7 -5 -4 -9 -15 -15 -14 -13 -15 -14 -13 -11 -9 -7 -4 5 4 4 5 4 3
-2 -1 -2 -3 -3 -2 -2 -3 -5 -6 -7 -5 -4 -4 -3 -8 -5 -5 -4 -7 -8 -7 -5 -5 -6 -4 -5 -9 -15 -15 -13 -13 -12 -12 -10 -10 -9 -8 2 5 4 4 5 5 5
-1 -1 -3 -4 -3 -2 -3 -4 -6 -6 -5 -4 -3 -3 -6 -8 -6 -5 -7 -8 -8 -7 -5 -5 -5 -4 -9 -11 -9 -9 -9 -10 -11 -11 -10 -11 -10 -9 5 5 6 5 5 5 5
-1 -1 -3 -4 -2 -3 -4 -5 -6 -5 -4 -3 -2 -1 -6 -7 -4 -6 -8 -9 -7 -6 -5 -6 -5 -7 -9 -8 -7 -7 -6 -7 -7 -10 -10 -9 -7 -6 7 7 6 6 6 6 5
-1 -1 -3 -3 -3 -4 -5 -5 -5 -4 -3 -2 2 1 -8 -5 -6 -8 -9 -9 -6 -7 -7 -6 -7 -6 -6 -8 -5 -6 -6 -6 -6 -7 -8 -7 -2 1 1 6 5 5 6 6 6
-1 -2 -4 -3 -4 -5 -5 -4 -1 -1 -1 -6 -6 -6 -3 -5 -6 -9 -10 -9 -5 -6 -3 -4 -5 -5 -6 -7 -8 -7 -7 -5 -6 -7 -3 2 3 3 4 5 5 6 6 7 7
-1 -3 -4 -4 -5 -4 -4 -1 1 4 2 -5 -6 -5 -8 -6 -5 -9 -9 -6 -5 -3 -4 -3 -4 -6 -2 -3 -2 -4 -4 -3 -4 -4 -1 2 3 3 4 5 5 6 6 8 9
-1 -4 -4 -5 -4 -4 -3 5 5 5 4 -2 -10 -9 -5 -5 -5 -7 -6 -5 -5 -4 -4 -3 -5 -4 -2 -0 0 0 -1 -1 -2 -3 -2 -1 1 3 3 5 5 5 6 7 7
-1 -4 -4 -4 -4 -4 1 6 6 5 -2 -4 -5 -6 -6 -5 -6 -6 -5 -5 -4 -4 -5 -2 -2 -2 -2 -2 -1 1 -1 -2 -2 -4 -0 -3 1 2 3 4 5 5 5 4 4
-2 -3 -3 -3 -2 -2 -0 5 4 5 1 -6 -5 -7 -6 -5 -6 -6 -6 -5 -5 -3 -4 -2 -1 -1 -1 -2 -3 -1 -1 -1 -1 0 -1 -0 2 2 4 5 5 4 4 4 3
-2 -1 -2 -0 1 -2 5 1 3 4 3 -5 -6 -6 -5 -4 -5 -6 -3 -4 -4 -2 -2 -1 -2 -3 -2 -2 -2 -2 1 2 2 2 4 2 1 2 4 4 4 4 4 3 3
-1 -1 -3 3 4 -1 1 2 1 4 -2 -3 -4 -6 -4 -3 -3 -2 -0 0 -1 0 1 0 -0 -2 -2 -0 -2 1 2 5 6 5 6 2 3 2 0 2 3 3 4 3 3
0 -1 -2 5 5 1 3 -3 -0 1 -0 -5 -4 -4 -3 -2 -1 -1 -0 1 -1 -1 2 2 2 -1 -3 -1 0 2 1 5 6 7 5 2 6 4 2 1 2 3 3 3 3
2 1 2 6 5 -2 -0 1 -0 3 -2 -2 -3 -1 -0 -1 -1 -0 0 0 -1 -0 1 2 1 -2 -3 -2 -2 1 1 -1 5 3 3 3 3 3 2 3 3 3 3 3 3
2 3 6 5 1 0 -0 -1 3 3 -1 -3 -2 -1 0 -0 1 1 1 1 -1 -2 -1 1 2 -2 -3 -2 -2 -2 -0 3 3 3 4 3 4 5 4 4 3 2 3 2 3
3 5 4 -1 0 -2 0 1 5 4 -0 -3 -1 -0 -1 -0 1 2 2 1 0 0 -1 -0 -1 -1 -1 -2 -0 -0 1 1 2 2 4 4 3 1 3 3 3 2 2 3 2
5 2 4 -0 -2 2 3 4 3 -2 -1 0 -0 -1 -0 1 3 3 3 2 2 2 -1 -0 0 2 -1 -2 -1 -2 0 -1 -1 -1 2 2 2 -1 1 2 2 2 2 2 2
2 8 7 1 1 2 0 1 1 -1 -0 0 1 1 2 4 4 4 4 2 1 1 0 -1 0 2 1 -2 -2 -1 1 1 -0 1 2 1 -1 0 1 1 1 1 1 1 1
3 6 7 4 -5 -1 0 1 2 1 1 0 1 1 3 4 4 5 4 2 -1 0 2 -1 1 0 2 -2 -1 -3 -0 1 0 2 2 1 -2 1 2 2 1 1 1 1 1
3 4 5 5 5 -1 -2 1 2 1 0 -0 1 1 2 4 5 5 4 3 -0 1 2 -1 2 1 0 0 -1 -3 -3 1 1 -0 -0 -2 0 -2 2 2 1 1 1 1 1
5 3 1 1 3 3 2 3 2 2 2 1 1 3 2 3 2 5 4 2 -3 2 2 1 3 -1 1 1 1 -0 -3 -2 -1 -2 0 0 0 0 1 1 2 2 2 1 -0
6 2 -0 2 3 3 4 3 3 3 4 2 2 2 2 2 3 2 1 1 0 2 3 1 1 0 0 0 -3 -3 -2 -2 -1 -0 -1 2 -1 2 2 2 2 2 1 0 -2
Wind_Speed
19 21 22 23 24 22 22 21 20 17 16 13 12 13 14 13 13 16 19 9 2 6 7 8 5 6 3 4 3 2 4 3 8 11 5 11 4 6 2 15 5 3 11 26 29
20 22 22 23 23 22 21 21 19 16 14 11 11 12 11 10 13 18 8 8 10 7 5 5 5 5 3 3 3 4 3 7 5 9 10 21 22 12 7 5 4 11 15 32 30
21 22 23 22 23 21 20 19 18 14 12 10 9 9 7 8 11 3 2 9 10 11 8 4 6 1 3 3 5 5 5 6 9 9 11 9 11 6 17 2 8 26 36 31 32
20 22 22 21 21 20 19 18 16 13 11 8 8 6 5 7 2 4 3 3 8 11 11 7 6 5 3 4 4 2 6 7 4 15 11 12 12 6 10 5 18 27 32 34 33
20 21 20 21 20 18 18 17 13 11 8 6 6 5 6 5 7 3 7 3 4 7 10 10 10 7 3 4 4 2 2 5 12 17 21 17 7 8 4 12 22 28 31 34 31
19 20 19 19 18 17 16 13 11 9 6 6 7 5 6 5 3 3 10 7 7 6 9 12 7 10 4 4 5 6 6 6 11 12 12 8 5 8 8 20 25 30 33 32 29
18 18 18 17 16 15 13 11 9 6 6 7 6 6 10 11 3 10 8 7 5 5 7 7 13 10 5 4 4 8 4 5 4 4 4 10 1 2 16 25 29 33 31 29 29
17 16 16 14 14 12 9 8 6 5 7 6 5 6 9 3 8 7 4 4 5 4 6 6 8 9 4 10 6 5 5 3 3 2 2 4 5 2 20 30 21 23 22 22 25
15 14 14 12 12 9 6 6 6 7 6 4 4 5 7 2 6 4 4 3 2 3 3 4 10 5 4 5 5 6 4 2 2 1 3 3 1 13 16 18 17 18 17 18 21
14 12 12 10 9 7 8 9 8 6 5 3 4 4 5 1 3 6 4 3 1 2 4 3 4 5 5 5 5 5 3 2 3 2 6 6 4 7 3 14 13 13 13 14 14
13 11 9 9 10 12 13 10 4 3 10 8 4 3 1 8 2 6 3 2 1 4 3 6 7 3 3 3 3 3 4 2 1 3 7 5 5 8 9 14 13 15 16 15 11
11 9 9 10 13 16 15 5 3 1 5 17 13 11 15 10 3 5 3 1 3 2 1 6 4 3 4 5 6 5 6 3 2 6 7 5 8 7 10 6 11 20 23 25 24
11 9 10 13 15 16 15 4 3 5 3 4 12 8 3 3 3 5 4 3 3 3 5 6 0 3 4 5 9 4 5 2 3 3 6 4 5 5 6 12 16 21 24 25 24
12 13 15 16 14 15 12 3 2 2 4 4 4 2 4 3 2 5 5 2 4 4 5 5 3 4 6 6 3 3 0 3 4 3 3 3 3 2 3 3 2 15 19 20 19
15 17 19 19 7 16 4 4 3 2 3 3 3 1 4 4 6 2 3 2 4 4 4 1 2 5 7 1 3 1 5 5 4 5 4 3 4 4 6 5 8 9 15 18 15
19 19 20 16 12 13 6 4 4 6 3 2 5 4 4 2 2 2 3 6 6 6 6 3 3 3 2 3 3 4 5 8 5 3 2 1 4 4 6 6 5 11 17 18 16
21 22 23 14 11 12 6 6 5 4 2 3 4 3 3 2 4 4 5 5 4 5 4 6 4 5 3 3 3 6 5 3 3 3 4 3 2 6 4 5 11 15 20 19 17
22 23 23 16 14 10 8 4 2 3 5 1 4 3 4 3 4 4 3 3 5 4 3 4 4 3 5 2 4 3 5 4 4 3 3 3 4 4 4 13 26 24 22 18 16
23 24 21 16 14 11 5 4 6 6 3 6 4 5 1 2 5 4 3 2 1 1 5 4 0 2 2 2 3 2 3 4 6 1 3 2 4 4 6 5 16 21 18 19 17
25 24 17 17 15 11 4 5 3 4 1 4 4 4 4 4 4 4 1 2 2 3 2 5 4 2 2 3 6 2 5 3 3 2 3 3 4 4 5 7 7 14 23 18 16
26 10 17 17 14 7 4 5 4 8 5 4 5 4 4 4 3 2 2 1 1 2 4 3 4 4 1 3 3 2 2 6 4 3 4 1 5 5 11 11 13 15 20 18 19
19 3 18 19 4 2 4 5 2 4 2 3 4 3 5 3 4 3 4 2 2 1 3 1 5 2 2 2 2 2 3 4 4 3 1 3 6 2 7 14 16 16 19 21 20
12 6 15 18 4 1 3 1 2 2 3 2 3 3 3 4 5 2 3 1 1 2 6 5 2 3 6 5 4 2 3 4 5 3 5 5 5 3 4 8 13 19 19 18 16
13 3 4 6 4 7 5 3 2 2 3 5 4 5 5 4 5 5 3 1 1 3 5 4 3 5 7 4 3 4 4 4 5 3 4 6 4 3 3 5 11 17 18 16 12
8 3 8 3 1 3 5 6 4 2 3 4 4 3 4 4 3 3 2 2 4 3 3 3 4 2 2 3 2 2 4 6 7 5 6 4 7 6 9 8 17 21 18 14 9
8 6 5 4 16 6 3 6 6 3 3 2 6 2 2 6 6 8 6 4 4 3 3 3 2 1 2 3 5 3 6 7 5 3 7 4 8 6 7 14 18 20 17 13 9
8 10 12 1 4 5 6 6 7 7 3 3 6 5 3 1 4 12 7 11 7 5 3 3 5 3 4 4 5 6 9 9 5 5 7 6 8 8 4 15 24 21 17 12 9
Wind_Direction
295 297 299 302 302 302 299 295 292 287 285 283 282 279 279 282 284 280 272 261 217 208 252 248 236 222 230 218 187 159 70 174 174 187 147 76 93 155 206 147 84 197 167 164 159
292 293 297 300 301 300 296 291 287 285 279 277 275 277 282 290 291 280 308 246 236 245 264 232 224 236 215 217 174 86 102 223 202 170 161 168 179 154 149 140 65 124 149 155 159
290 294 297 299 300 299 293 288 284 280 271 270 274 271 282 297 306 297 343 223 227 246 260 232 214 213 221 204 187 160 194 216 246 194 153 123 141 181 127 244 195 147 151 162 162
289 293 297 300 297 295 291 283 279 270 263 265 264 256 266 281 233 24 23 204 219 230 237 230 179 186 195 217 197 279 233 229 198 196 156 137 142 132 168 205 167 161 160 166 169
289 292 296 297 294 292 284 276 272 260 257 250 238 235 270 266 255 344 19 290 259 234 227 220 194 191 183 191 175 155 339 114 123 152 160 147 161 171 214 154 157 162 170 173 175
288 291 293 292 289 283 275 272 261 252 240 221 217 237 260 259 232 316 341 330 284 255 231 218 213 219 232 256 167 168 73 95 121 121 146 142 136 160 208 160 163 171 178 181 183
287 289 291 288 282 273 268 260 250 228 206 200 223 246 252 229 221 311 318 312 304 280 235 228 229 217 193 137 127 103 60 44 48 111 107 129 76 168 162 166 171 180 184 188 193
283 287 287 285 273 261 253 241 228 191 185 207 238 257 253 235 264 277 265 311 301 237 262 273 214 216 214 127 44 67 55 80 294 105 95 114 251 19 169 171 165 179 189 197 203
279 283 283 276 259 242 224 209 181 171 191 219 241 234 263 242 248 248 249 315 289 242 272 234 158 154 124 88 41 12 155 183 80 84 116 95 67 355 176 169 158 174 187 199 210
274 278 274 257 231 200 179 169 163 184 200 218 230 255 265 21 219 224 257 315 268 195 226 107 59 63 37 72 190 195 141 230 199 164 44 42 45 347 142 171 144 153 158 174 198
264 265 254 228 196 176 161 151 166 219 214 208 193 226 204 5 188 201 242 268 61 91 52 14 72 120 219 191 180 147 134 131 264 353 81 62 40 8 42 118 127 131 135 139 149
252 244 226 199 182 169 167 185 190 203 269 240 248 276 270 298 302 239 225 164 80 115 97 35 87 220 119 100 102 79 98 68 48 6 89 90 50 34 40 60 123 132 126 122 116
231 212 195 180 176 176 179 167 238 275 233 214 236 253 260 234 215 161 175 137 117 91 63 120 133 111 92 56 73 43 107 126 153 85 65 108 35 35 27 87 123 131 133 133 131
209 190 181 173 180 186 191 161 201 254 71 286 210 234 186 222 66 138 138 174 33 111 115 79 355 105 66 71 94 107 141 110 83 88 163 37 242 93 85 54 108 148 150 145 140
195 184 182 172 184 183 186 204 198 209 88 248 186 164 177 166 140 73 102 122 129 118 99 264 61 76 67 89 75 134 59 59 85 81 81 11 83 275 134 194 206 187 162 159 156
189 184 181 175 184 184 205 187 165 46 260 184 155 163 106 71 59 107 96 77 92 69 41 59 46 58 97 61 56 118 57 38 43 67 42 268 145 234 196 193 160 185 178 173 165
186 185 182 173 175 191 207 166 48 125 317 186 154 135 114 73 55 51 30 24 95 89 26 13 355 337 45 87 54 72 64 5 5 8 219 317 119 249 237 180 172 184 182 180 176
184 188 184 171 171 187 179 61 153 233 221 153 119 79 139 134 23 42 71 68 27 78 98 127 341 11 344 81 163 69 138 152 216 197 247 349 245 250 272 212 183 183 183 181 183
182 185 187 177 177 181 188 81 210 212 203 140 67 99 98 79 119 84 60 101 47 35 125 133 314 327 71 63 110 182 55 156 107 345 55 255 292 324 44 105 161 180 187 196 198
183 180 183 174 173 174 91 206 228 219 273 127 135 151 139 143 89 83 86 324 110 28 151 192 108 25 343 98 46 119 146 68 11 129 274 296 268 230 195 190 176 184 196 197 197
176 175 177 171 163 173 158 213 259 261 224 134 158 134 138 132 99 85 148 345 17 48 82 117 100 282 30 38 163 27 63 53 104 111 160 282 262 222 197 193 190 190 189 199 185
180 123 170 167 98 80 159 186 269 270 58 78 101 102 138 123 95 118 155 171 358 240 103 55 125 122 202 266 237 179 146 134 112 211 78 144 274 331 250 209 189 196 192 180 174
166 118 164 175 133 266 254 200 248 300 37 94 103 102 82 122 101 120 120 12 7 85 163 178 25 64 353 351 344 180 119 100 106 86 196 137 261 4 68 117 183 171 165 161 160
169 99 121 178 146 147 142 163 240 304 71 77 112 94 99 71 27 144 133 19 58 102 110 110 104 156 186 204 171 174 169 155 125 124 184 225 266 259 210 152 144 160 160 160 162
170 169 155 177 213 180 122 173 177 145 80 51 49 81 137 115 77 110 123 123 57 120 57 93 131 125 78 6 336 249 195 179 191 191 176 242 214 238 212 190 173 165 162 166 176
144 137 130 133 159 123 125 192 162 118 56 57 114 85 75 148 176 189 143 183 185 64 82 16 160 127 200 357 18 287 260 230 220 195 263 265 273 204 193 183 170 174 175 184 200
154 145 165 89 114 113 189 172 198 128 43 68 152 104 62 143 106 111 116 113 118 128 114 82 126 103 255 7 350 329 228 206 197 188 163 202 234 153 171 182 183 183 191 201 217
Height
1517 1517 1515 1513 1512 1511 1510 1509 1507 1505 1504 1505 1505 1504 1504 1503 1503 1501 1497 1500 1500 1501 1501 1501 1504 1504 1505 1505 1504 1504 1512 1526 1520 1524 1516 1512 1515 1520 1520 1520 1519 1522 1523 1529 1533
1514 1514 1512 1510 1509 1507 1507 1506 1504 1503 1503 1503 1503 1503 1503 1502 1500 1497 1496 1497 1498 1500 1500 1501 1503 1503 1504 1503 1502 1502 1515 1514 1504 1501 1502 1505 1510 1517 1520 1522 1524 1523 1525 1530 1535
1511 1510 1509 1506 1506 1504 1504 1502 1501 1501 1500 1501 1502 1503 1502 1501 1499 1495 1493 1494 1497 1498 1499 1500 1502 1503 1502 1502 1502 1504 1509 1501 1496 1500 1501 1506 1514 1518 1518 1524 1521 1521 1525 1532 1535
1507 1507 1505 1503 1503 1501 1500 1500 1499 1499 1499 1500 1501 1502 1501 1501 1501 1494 1493 1494 1495 1496 1497 1498 1500 1502 1500 1499 1498 1501 1496 1497 1496 1501 1503 1508 1513 1516 1518 1518 1519 1523 1526 1531 1535
1504 1504 1501 1500 1499 1498 1498 1498 1497 1498 1498 1499 1500 1500 1501 1500 1496 1494 1493 1494 1494 1494 1494 1496 1496 1498 1498 1499 1499 1499 1498 1499 1498 1502 1506 1511 1512 1515 1519 1520 1523 1527 1529 1531 1535
1500 1500 1498 1496 1496 1496 1496 1496 1496 1496 1497 1497 1499 1499 1500 1500 1494 1493 1492 1492 1492 1491 1492 1493 1493 1495 1497 1496 1497 1497 1500 1501 1502 1504 1507 1511 1515 1516 1519 1521 1524 1527 1530 1533 1536
1497 1496 1495 1493 1493 1494 1494 1494 1495 1495 1496 1497 1498 1498 1499 1493 1493 1492 1492 1491 1490 1490 1490 1491 1493 1496 1497 1497 1497 1499 1503 1502 1505 1505 1509 1511 1516 1516 1516 1521 1524 1528 1532 1536 1538
1493 1493 1492 1490 1491 1491 1492 1493 1494 1494 1495 1497 1497 1497 1494 1492 1492 1492 1491 1491 1490 1490 1490 1492 1492 1495 1495 1496 1499 1504 1508 1517 1506 1505 1511 1512 1527 1518 1518 1520 1527 1531 1535 1536 1540
1490 1489 1489 1488 1489 1490 1491 1493 1493 1494 1495 1496 1497 1497 1492 1491 1491 1491 1491 1491 1490 1490 1490 1490 1492 1493 1495 1500 1513 1513 1521 1516 1510 1507 1509 1512 1521 1525 1524 1525 1527 1531 1534 1537 1540
1487 1486 1486 1487 1488 1489 1490 1492 1493 1494 1495 1496 1497 1499 1490 1491 1490 1491 1491 1491 1491 1490 1490 1489 1490 1495 1501 1507 1529 1519 1517 1515 1514 1511 1512 1519 1530 1528 1525 1526 1528 1532 1535 1537 1538
1484 1484 1484 1485 1486 1488 1490 1492 1497 1497 1493 1490 1491 1489 1488 1489 1489 1490 1491 1491 1491 1490 1495 1492 1501 1511 1504 1503 1503 1506 1512 1514 1514 1511 1523 1535 1536 1533 1529 1530 1534 1535 1536 1538 1537
1482 1482 1483 1485 1486 1487 1489 1490 1491 1493 1491 1489 1489 1488 1488 1489 1489 1489 1491 1492 1491 1496 1494 1501 1510 1503 1503 1503 1506 1509 1517 1518 1516 1516 1521 1534 1540 1538 1536 1537 1537 1536 1538 1538 1539
1479 1479 1482 1485 1486 1487 1489 1490 1490 1490 1490 1487 1486 1487 1487 1488 1488 1488 1490 1491 1492 1494 1498 1505 1504 1501 1501 1506 1509 1515 1519 1518 1520 1519 1523 1528 1542 1543 1541 1539 1539 1540 1540 1540 1540
1476 1478 1481 1484 1489 1487 1488 1489 1489 1490 1498 1490 1486 1485 1486 1486 1488 1488 1489 1491 1492 1498 1499 1504 1502 1503 1505 1509 1512 1518 1514 1515 1519 1526 1539 1529 1551 1542 1543 1543 1542 1542 1542 1541 1542
1474 1476 1480 1484 1484 1486 1488 1488 1489 1489 1522 1486 1484 1484 1484 1487 1488 1489 1489 1489 1493 1497 1501 1508 1505 1507 1511 1511 1508 1515 1514 1517 1521 1531 1534 1536 1547 1546 1543 1546 1543 1544 1543 1542 1543
1472 1475 1480 1482 1483 1485 1487 1487 1489 1506 1514 1486 1481 1483 1485 1486 1487 1488 1488 1490 1492 1498 1501 1506 1504 1506 1508 1510 1510 1512 1518 1525 1531 1538 1555 1537 1543 1547 1544 1536 1540 1541 1542 1543 1545
1470 1474 1478 1480 1482 1484 1486 1487 1504 1517 1485 1488 1485 1483 1485 1489 1490 1490 1495 1499 1503 1514 1517 1512 1511 1509 1509 1512 1513 1518 1529 1556 1557 1564 1558 1539 1544 1537 1530 1531 1533 1537 1541 1543 1545
1468 1473 1476 1478 1480 1483 1485 1488 1502 1492 1489 1481 1482 1486 1491 1489 1495 1496 1499 1507 1503 1505 1521 1526 1531 1514 1511 1513 1518 1521 1527 1553 1545 1563 1555 1540 1544 1533 1528 1528 1530 1536 1539 1542 1544
1466 1471 1474 1477 1479 1482 1484 1506 1499 1492 1480 1482 1484 1492 1493 1491 1494 1499 1504 1508 1505 1504 1515 1523 1522 1512 1512 1512 1515 1522 1535 1531 1552 1561 1566 1552 1539 1530 1529 1529 1531 1535 1538 1540 1543
1464 1470 1472 1474 1477 1480 1485 1494 1487 1480 1478 1478 1490 1489 1496 1494 1498 1502 1504 1506 1506 1505 1504 1513 1525 1515 1513 1513 1516 1517 1525 1541 1552 1556 1550 1550 1544 1541 1533 1532 1531 1533 1535 1538 1541
1465 1468 1468 1472 1475 1478 1492 1488 1482 1476 1476 1477 1485 1490 1491 1495 1498 1504 1507 1507 1505 1505 1505 1509 1519 1525 1516 1522 1523 1526 1530 1539 1544 1558 1564 1572 1547 1526 1524 1524 1526 1529 1533 1535 1538
1461 1464 1466 1470 1475 1481 1486 1480 1478 1475 1473 1474 1478 1482 1490 1493 1500 1503 1506 1505 1505 1505 1509 1512 1524 1536 1523 1518 1519 1519 1524 1533 1556 1547 1568 1568 1549 1523 1523 1522 1525 1528 1531 1534 1536
1457 1460 1464 1468 1482 1486 1479 1477 1478 1475 1475 1475 1479 1480 1486 1494 1504 1504 1505 1505 1504 1506 1509 1511 1526 1544 1535 1527 1520 1519 1524 1532 1539 1550 1552 1570 1545 1523 1521 1521 1524 1527 1530 1532 1536
1454 1462 1464 1467 1469 1473 1475 1477 1478 1475 1474 1475 1480 1481 1487 1496 1498 1506 1507 1506 1506 1506 1507 1508 1523 1526 1537 1525 1524 1523 1522 1527 1531 1555 1547 1545 1528 1522 1523 1523 1524 1526 1530 1533 1536
1448 1453 1455 1468 1470 1470 1470 1476 1478 1477 1475 1476 1481 1482 1487 1498 1500 1505 1505 1506 1507 1507 1508 1510 1522 1522 1525 1526 1522 1520 1521 1526 1528 1529 1534 1526 1530 1520 1519 1520 1522 1525 1529 1532 1534
1445 1449 1454 1460 1464 1469 1471 1475 1476 1476 1477 1480 1483 1486 1486 1493 1493 1503 1502 1504 1504 1507 1510 1513 1528 1523 1525 1529 1530 1525 1522 1523 1524 1523 1526 1523 1522 1513 1514 1518 1522 1523 1526 1529 1531
1444 1446 1450 1464 1466 1470 1472 1473 1475 1474 1481 1480 1482 1486 1489 1490 1490 1491 1496 1498 1500 1506 1513 1517 1527 1533 1538 1538 1534 1538 1518 1517 1514 1514 1515 1523 1510 1512 1515 1515 1517 1520 1523 1525 1528